Weather History for Peoria, IL

Change the Weather History Date:

Tuesday, March 5, 2013

  Actual Average Record
Temperature  
Mean Temperature 32 °F 36 °F  
Max Temperature 35 °F 45 °F 70 °F (1946)
Min Temperature 28 °F 27 °F -8 °F (1960)
Degree Days  
Heating Degree Days 33 29  
Month to date heating degree days 189 148  
Since 1 July heating degree days 4482 4664  
Cooling Degree Days 0 0  
Month to date cooling degree days 0 0  
Year to date cooling degree days 0 0  
Moisture  
Dew Point 28 °F    
Average Humidity 84    
Maximum Humidity 92    
Minimum Humidity 75    
Precipitation  
Precipitation 0.29 in 0.08 in 1.30 in (1894)
Month to date precipitation 0.32 0.41  
Year to date precipitation 7.05 3.98  
Snow  
Snow 2.80 in 0.20 in 3.40 in (1915)
Month to date snowfall 3.0 0.7  
Since 1 July snowfall 14.9 22.0  
Snow Depth 3.00 in    
Sea Level Pressure  
Sea Level Pressure 29.89 in    
Wind  
Wind Speed 10 mph (NNW)    
Max Wind Speed 20 mph    
Max Gust Speed 30 mph    
Visibility 2 miles    
Events Fog , Rain , Snow    
T = Trace of Precipitation, MM = Missing Value Source: NWS Daily Summary

Daily Weather History Graph

Daily Weather History Graph

Search for Another Location

Airport:

Trip Planner

Search our weather history database for the weather conditions in past years. The results will help you decide how hot, cold, wet, or windy it might be!

Date:

Astronomy

Mar. 05, 2013 Rise Set
Actual Time 6:26 AM CST 5:54 PM CST
Civil Twilight 5:58 AM CST 6:22 PM CST
Nautical Twilight 5:27 AM CST 6:53 PM CST
Astronomical Twilight 4:55 AM CST 7:25 PM CST
Moon 1:39 AM CST (3/5) 11:32 AM CST (3/5)
Length of Visible Light 12h 23m
Length of Day
11h 28m
Last Quarter, 40% of the Moon is Illuminated
Mar 5
Last Quarter
Mar 11
New
Mar 19
First Quarter
Mar 27
Full
Apr 2
Last Quarter

Hourly Weather History & Observations

Time (CST) Temp. Windchill Dew Point Humidity Pressure Visibility Wind Dir Wind Speed Gust Speed Precip Events Conditions
1:54 AM 34.0 °F 25.0 °F 28.9 °F 82% 29.89 in 7.0 mi East 12.7 mph - 0.01 in   Overcast
2:07 AM 34.0 °F 25.5 °F 28.9 °F 82% 29.87 in 8.0 mi East 11.5 mph - 0.00 in   Overcast
2:46 AM 33.1 °F 24.9 °F 30.0 °F 89% 29.86 in 2.5 mi ENE 10.4 mph - 0.00 in Snow Light Snow
2:54 AM 33.1 °F 25.5 °F 30.0 °F 89% 29.88 in 2.5 mi East 9.2 mph - 0.01 in Snow Light Snow
3:14 AM 33.1 °F 26.1 °F 30.0 °F 89% 29.86 in 1.8 mi ENE 8.1 mph - 0.00 in Snow Light Snow
3:54 AM 33.1 °F 24.9 °F 30.0 °F 89% 29.87 in 2.5 mi ENE 10.4 mph - 0.01 in Snow Light Snow
4:00 AM 33.1 °F 26.1 °F 30.0 °F 89% 29.85 in 3.0 mi ENE 8.1 mph - 0.00 in Snow Light Snow
4:13 AM 33.1 °F 26.9 °F 30.0 °F 89% 29.85 in 2.5 mi ENE 6.9 mph - 0.00 in Snow Light Snow
4:19 AM 33.1 °F 26.1 °F 30.0 °F 89% 29.85 in 1.2 mi ENE 8.1 mph - 0.00 in Snow Light Snow
4:24 AM 32.0 °F 24.2 °F 30.0 °F 92% 29.85 in 0.8 mi ENE 9.2 mph - 0.01 in Snow Light Snow
4:33 AM 32.0 °F 24.2 °F 30.9 °F 96% 29.85 in 0.5 mi ENE 9.2 mph - 0.03 in Fog , Snow Snow
4:43 AM 32.0 °F 24.2 °F 30.9 °F 96% 29.85 in 1.0 mi ENE 9.2 mph - 0.04 in Snow Light Snow
4:47 AM 32.0 °F 24.2 °F 30.9 °F 96% 29.85 in 0.8 mi ENE 9.2 mph - 0.04 in Snow Light Snow
4:54 AM 32.0 °F 25.6 °F 30.9 °F 96% 29.87 in 0.8 mi ENE 6.9 mph - 0.05 in Snow Light Snow
5:00 AM 32.0 °F 24.8 °F 30.9 °F 96% 29.85 in 1.0 mi ENE 8.1 mph - 0.01 in Snow Light Snow
5:28 AM 32.0 °F 24.8 °F 30.2 °F 93% 29.85 in 1.8 mi ENE 8.1 mph - N/A Snow Light Snow
5:38 AM 32.0 °F 24.8 °F 30.9 °F 96% 29.85 in 2.0 mi NE 8.1 mph - 0.02 in Snow Light Snow
5:54 AM 32.0 °F 24.8 °F 30.9 °F 96% 29.87 in 2.5 mi ENE 8.1 mph - 0.02 in   Overcast
6:01 AM 32.0 °F 25.6 °F 30.9 °F 96% 29.85 in 3.0 mi NE 6.9 mph - N/A   Overcast
6:27 AM 33.1 °F - 30.9 °F 92% 29.87 in 3.0 mi Calm Calm - 0.00 in Rain Light Rain
6:36 AM 32.0 °F - 30.0 °F 92% 29.87 in 3.0 mi Calm Calm - 0.00 in Rain Light Rain
6:42 AM 33.1 °F - 30.9 °F 92% 29.87 in 2.5 mi Calm Calm - 0.00 in Rain Light Rain
6:54 AM 33.1 °F - 30.9 °F 92% 29.88 in 2.5 mi Calm Calm - 0.00 in Rain Light Rain
6:59 AM 32.0 °F - 30.9 °F 96% 29.86 in 1.8 mi Calm Calm - 0.00 in Rain Light Rain
7:10 AM 32.0 °F 28.7 °F 30.9 °F 96% 29.86 in 1.2 mi NNW 3.5 mph - 0.00 in   Overcast
7:35 AM 32.0 °F 28.7 °F 30.9 °F 96% 29.86 in 0.8 mi NW 3.5 mph - 0.02 in Snow Light Snow
7:54 AM 32.0 °F 26.4 °F 30.9 °F 96% 29.89 in 0.8 mi NW 5.8 mph - 0.02 in Snow Light Snow
8:07 AM 32.0 °F 27.5 °F 30.9 °F 96% 29.87 in 0.8 mi NW 4.6 mph - 0.01 in Snow Light Snow
8:50 AM 32.0 °F 27.5 °F 30.2 °F 93% 29.85 in 0.2 mi NW 4.6 mph - 0.04 in Fog , Snow Snow
8:51 AM 32.0 °F 28.7 °F 30.9 °F 96% 29.87 in 0.2 mi NW 3.5 mph - 0.04 in Fog , Snow Snow
9:04 AM 32.0 °F 26.4 °F 30.9 °F 96% 29.85 in 0.2 mi NW 5.8 mph - 0.01 in Fog , Snow Snow
9:16 AM 32.0 °F 26.4 °F 30.9 °F 96% 29.85 in 0.5 mi NNW 5.8 mph - 0.02 in Fog , Snow Light Snow
9:33 AM 33.1 °F 28.7 °F 30.9 °F 92% 29.84 in 1.0 mi NW 4.6 mph - 0.02 in Snow Light Snow
9:45 AM 32.0 °F 25.6 °F 30.9 °F 96% 29.84 in 0.8 mi NW 6.9 mph - 0.02 in Snow Light Snow
9:52 AM 32.0 °F 26.4 °F 30.2 °F 93% 29.84 in 1.0 mi NW 5.8 mph - 0.03 in Snow Light Snow
9:54 AM 32.0 °F 27.5 °F 30.9 °F 96% 29.86 in 1.0 mi NNW 4.6 mph - 0.03 in Snow Light Snow
10:09 AM 32.0 °F 27.5 °F 30.9 °F 96% 29.84 in 0.8 mi NW 4.6 mph - 0.00 in Snow Light Snow
10:50 AM 32.0 °F 24.8 °F 30.2 °F 93% 29.84 in 0.5 mi NW 8.1 mph - 0.03 in Fog , Snow Snow
10:54 AM 32.0 °F 24.2 °F 30.0 °F 92% 29.87 in 0.5 mi NW 9.2 mph - 0.04 in Fog , Snow Snow
11:54 AM 30.9 °F 20.2 °F 28.0 °F 89% 29.88 in 0.8 mi WNW 15.0 mph - 0.03 in Snow Light Snow
12:08 PM 30.9 °F 21.2 °F 28.0 °F 89% 29.85 in 0.8 mi NW 12.7 mph 23.0 mph 0.00 in Snow Light Snow
12:13 PM 30.9 °F 20.7 °F 28.0 °F 89% 29.85 in 0.5 mi WNW 13.8 mph 23.0 mph 0.00 in Fog , Snow Snow
12:20 PM 30.9 °F 21.2 °F 28.0 °F 89% 29.85 in 0.5 mi WNW 12.7 mph - 0.00 in Fog , Snow Snow
12:45 PM 30.9 °F 21.7 °F 28.0 °F 89% 29.85 in 0.8 mi WNW 11.5 mph - 0.02 in Snow Light Snow
12:54 PM 30.9 °F 20.7 °F 28.0 °F 89% 29.87 in 0.8 mi NW 13.8 mph 21.9 mph 0.02 in Snow Light Snow
1:09 PM 30.9 °F 21.2 °F 27.0 °F 85% 29.85 in 1.0 mi NW 12.7 mph 20.7 mph 0.00 in Snow Light Snow
1:20 PM 30.9 °F 20.7 °F 27.0 °F 85% 29.85 in 1.2 mi NW 13.8 mph 20.7 mph 0.00 in Snow Light Snow
1:43 PM 30.9 °F 19.8 °F 26.1 °F 82% 29.85 in 1.8 mi WNW 16.1 mph 25.3 mph 0.00 in Snow Light Snow
1:54 PM 30.9 °F 20.7 °F 26.1 °F 82% 29.88 in 2.5 mi WNW 13.8 mph 23.0 mph 0.00 in Snow Light Snow
2:10 PM 30.9 °F 19.1 °F 26.1 °F 82% 29.86 in 1.2 mi WNW 18.4 mph 26.5 mph 0.00 in Snow Light Snow
2:21 PM 30.9 °F 19.8 °F 26.1 °F 82% 29.86 in 2.0 mi WNW 16.1 mph 25.3 mph 0.00 in Snow Light Snow
2:30 PM 30.9 °F 21.2 °F 26.1 °F 82% 29.87 in 4.0 mi WNW 12.7 mph 25.3 mph 0.00 in   Haze
2:54 PM 30.9 °F 19.8 °F 25.0 °F 79% 29.89 in 4.0 mi WNW 16.1 mph 27.6 mph 0.00 in   Haze
3:54 PM 30.9 °F 20.7 °F 25.0 °F 79% 29.90 in 5.0 mi WNW 13.8 mph 24.2 mph 0.00 in Snow Light Snow
4:54 PM 30.0 °F 18.7 °F 25.0 °F 82% 29.91 in 7.0 mi WNW 16.1 mph 24.2 mph 0.00 in   Overcast
5:46 PM 30.0 °F 20.0 °F 25.0 °F 82% 29.91 in 2.5 mi WNW 12.7 mph 21.9 mph 0.00 in Snow Light Snow
5:54 PM 30.0 °F 20.0 °F 25.0 °F 82% 29.93 in 2.0 mi WNW 12.7 mph 25.3 mph 0.00 in Snow Light Snow
6:06 PM 30.0 °F 19.1 °F 25.0 °F 82% 29.92 in 1.8 mi WNW 15.0 mph 23.0 mph 0.00 in Snow Light Snow
6:12 PM 30.0 °F 19.1 °F 26.1 °F 85% 29.92 in 2.0 mi WNW 15.0 mph 20.7 mph 0.00 in Snow Light Snow
6:17 PM 30.0 °F 19.1 °F 26.1 °F 85% 29.92 in 3.0 mi NW 15.0 mph 24.2 mph 0.00 in Snow Light Snow
6:44 PM 30.0 °F 20.0 °F 26.1 °F 85% 29.93 in 2.0 mi NW 12.7 mph 21.9 mph 0.00 in Snow Light Snow
6:54 PM 30.0 °F 19.5 °F 26.1 °F 85% 29.95 in 2.0 mi NW 13.8 mph 24.2 mph 0.00 in Snow Light Snow
7:26 PM 30.0 °F 20.0 °F 27.0 °F 88% 29.94 in 1.8 mi NW 12.7 mph 20.7 mph 0.00 in Snow Light Snow
7:50 PM 30.2 °F 19.3 °F 26.6 °F 86% 29.95 in 2.0 mi NW 15.0 mph 23.0 mph 0.01 in Snow Light Snow
7:54 PM 30.0 °F 20.5 °F 27.0 °F 88% 29.98 in 2.0 mi NNW 11.5 mph 23.0 mph 0.01 in Snow Light Snow
8:08 PM 30.0 °F 20.0 °F 26.1 °F 85% 29.96 in 5.0 mi NNW 12.7 mph 20.7 mph 0.00 in Snow Light Snow
8:54 PM 30.0 °F 20.5 °F 26.1 °F 85% 30.01 in 3.0 mi North 11.5 mph 20.7 mph 0.00 in Snow Light Snow
9:54 PM 28.9 °F 18.6 °F 25.0 °F 85% 30.05 in 2.5 mi NNW 12.7 mph 20.7 mph 0.00 in Snow Light Snow
10:18 PM 28.0 °F 18.1 °F 24.1 °F 85% 30.04 in 3.0 mi NNW 11.5 mph 23.0 mph 0.00 in Snow Light Snow
10:54 PM 28.0 °F 18.6 °F 24.1 °F 85% 30.08 in 5.0 mi NNW 10.4 mph 26.5 mph 0.00 in Snow Light Snow
11:54 PM 28.0 °F 18.6 °F 24.1 °F 85% 30.09 in 10.0 mi NNW 10.4 mph 18.4 mph 0.00 in   Overcast